• In Uzbekistan
  • List of Countries
  • For 7 days
  • Water Temperature
  • Satellite Maps
  • Weather Map
  • Weather Widgets
  • user-avatar
    Login

    Hourly Weather Mendoza

    Today, 23 February, Thursday

    Time Temperature Precipitation Wind Pressure Humidity
    00:00 +30°C° 0 mm 2 mps 697 mmHg 40%
    01:00 +29°C° 0 mm 1 mps 697 mmHg 42%
    02:00 +29°C° 0 mm 2 mps 697 mmHg 43%
    03:00 +29°C° 0 mm 2 mps 697 mmHg 43%
    04:00 +28°C° 0 mm 2 mps 697 mmHg 43%
    05:00 +29°C° 0 mm 2 mps 698 mmHg 40%
    06:00 +30°C° 0 mm 2 mps 698 mmHg 38%
    07:00 +31°C° 0 mm 2 mps 698 mmHg 36%
    08:00 +32°C° 0 mm 2 mps 698 mmHg 33%
    09:00 +35°C° 0 mm 2 mps 699 mmHg 29%
    10:00 +36°C° 0 mm 2 mps 699 mmHg 26%
    11:00 +37°C° 0 mm 3 mps 698 mmHg 25%
    12:00 +38°C° 0 mm 4 mps 698 mmHg 23%
    13:00 +40°C° 0 mm 5 mps 698 mmHg 22%
    14:00 +40°C° 0.1 mm 5 mps 697 mmHg 22%
    15:00 +40°C° 0.1 mm 5 mps 697 mmHg 22%
    16:00 +40°C° 0.1 mm 5 mps 696 mmHg 22%
    17:00 +38°C° 0.1 mm 4 mps 697 mmHg 24%
    18:00 +36°C° 0.1 mm 3 mps 697 mmHg 27%
    19:00 +34°C° 0.1 mm 2 mps 697 mmHg 30%
    20:00 +32°C° 0 mm 2 mps 697 mmHg 32%
    21:00 +32°C° 0 mm 2 mps 697 mmHg 34%
    22:00 +31°C° 0 mm 2 mps 698 mmHg 36%
    23:00 +30°C° 0 mm 2 mps 697 mmHg 38%

    Tomorrow, 24 February, Friday

    Time Temperature Precipitation Wind Pressure Humidity
    00:00 +30°C° 0 mm 2 mps 697 mmHg 39%
    01:00 +29°C° 0 mm 2 mps 697 mmHg 41%
    02:00 +28°C° 0 mm 1 mps 697 mmHg 42%
    03:00 +28°C° 0 mm 1 mps 696 mmHg 43%
    04:00 +27°C° 0 mm 1 mps 696 mmHg 44%
    05:00 +28°C° 0 mm 1 mps 697 mmHg 41%
    06:00 +29°C° 0 mm 1 mps 698 mmHg 37%
    07:00 +31°C° 0 mm 1 mps 698 mmHg 34%
    08:00 +32°C° 0 mm 2 mps 698 mmHg 31%
    09:00 +35°C° 0 mm 3 mps 698 mmHg 29%
    10:00 +36°C° 0 mm 3 mps 699 mmHg 26%
    11:00 +37°C° 0 mm 4 mps 698 mmHg 25%
    12:00 +38°C° 0 mm 4 mps 698 mmHg 24%
    13:00 +40°C° 0 mm 5 mps 697 mmHg 23%
    14:00 +40°C° 0.1 mm 5 mps 697 mmHg 24%
    15:00 +40°C° 0.1 mm 4 mps 697 mmHg 24%
    16:00 +40°C° 0.1 mm 4 mps 696 mmHg 25%
    17:00 +37°C° 0.2 mm 4 mps 697 mmHg 28%
    18:00 +36°C° 0.2 mm 3 mps 697 mmHg 32%
    19:00 +34°C° 0.2 mm 2 mps 697 mmHg 35%
    20:00 +34°C° 0.4 mm 2 mps 697 mmHg 37%
    21:00 +33°C° 0.4 mm 3 mps 698 mmHg 39%
    22:00 +31°C° 0.4 mm 3 mps 698 mmHg 41%
    23:00 +30°C° 0.1 mm 2 mps 698 mmHg 42%

    Day after tomorrow, 25 February, Saturday

    Time Temperature Precipitation Wind Pressure Humidity
    00:00 +30°C° 0.1 mm 2 mps 697 mmHg 44%
    01:00 +29°C° 0.1 mm 2 mps 697 mmHg 46%
    02:00 +28°C° 0 mm 1 mps 697 mmHg 47%
    03:00 +28°C° 0 mm 1 mps 697 mmHg 48%
    04:00 +27°C° 0 mm 1 mps 697 mmHg 48%
    05:00 +28°C° 0 mm 1 mps 697 mmHg 46%
    06:00 +29°C° 0 mm 1 mps 698 mmHg 43%
    07:00 +30°C° 0 mm 1 mps 698 mmHg 40%
    08:00 +31°C° 0.2 mm 1 mps 698 mmHg 37%
    09:00 +32°C° 0.2 mm 2 mps 699 mmHg 35%
    10:00 +35°C° 0.2 mm 2 mps 699 mmHg 32%
    11:00 +35°C° 0.3 mm 2 mps 698 mmHg 32%
    12:00 +36°C° 0.3 mm 2 mps 698 mmHg 31%
    13:00 +37°C° 0.3 mm 3 mps 697 mmHg 31%
    14:00 +37°C° 0.4 mm 3 mps 697 mmHg 32%
    15:00 +37°C° 0.4 mm 4 mps 697 mmHg 32%
    16:00 +37°C° 0.4 mm 5 mps 696 mmHg 33%
    17:00 +35°C° 1.5 mm 4 mps 696 mmHg 39%
    18:00 +34°C° 1.5 mm 3 mps 696 mmHg 46%
    19:00 +31°C° 1.5 mm 2 mps 696 mmHg 52%
    20:00 +30°C° 2.3 mm 2 mps 697 mmHg 56%
    21:00 +29°C° 2.3 mm 3 mps 697 mmHg 60%
    22:00 +28°C° 2.3 mm 3 mps 697 mmHg 64%
    23:00 +27°C° 0.7 mm 3 mps 697 mmHg 65%

    26 February, Sunday

    Time Temperature Precipitation Wind Pressure Humidity
    00:00 +27°C° 0.7 mm 3 mps 696 mmHg 67%
    01:00 +27°C° 0.7 mm 3 mps 696 mmHg 68%
    02:00 +26°C° 0.3 mm 2 mps 696 mmHg 68%
    03:00 +26°C° 0.3 mm 2 mps 695 mmHg 68%
    04:00 +26°C° 0.3 mm 1 mps 695 mmHg 68%
    05:00 +27°C° 0.2 mm 1 mps 695 mmHg 64%
    06:00 +27°C° 0.2 mm 1 mps 696 mmHg 60%
    07:00 +28°C° 0.2 mm 1 mps 696 mmHg 57%
    08:00 +29°C° 0.1 mm 1 mps 696 mmHg 52%
    09:00 +31°C° 0.1 mm 2 mps 696 mmHg 48%
    10:00 +33°C° 0.1 mm 3 mps 697 mmHg 44%
    11:00 +34°C° 0.1 mm 3 mps 696 mmHg 42%
    12:00 +35°C° 0.1 mm 3 mps 696 mmHg 40%
    13:00 +36°C° 0.1 mm 3 mps 695 mmHg 38%
    14:00 +36°C° 0.7 mm 3 mps 695 mmHg 38%
    15:00 +36°C° 0.7 mm 3 mps 695 mmHg 37%
    16:00 +36°C° 0.7 mm 3 mps 694 mmHg 37%
    17:00 +35°C° 1 mm 2 mps 695 mmHg 42%
    18:00 +32°C° 1 mm 2 mps 695 mmHg 47%
    19:00 +31°C° 1 mm 2 mps 695 mmHg 52%
    20:00 +30°C° 1.1 mm 2 mps 696 mmHg 55%
    21:00 +29°C° 1.1 mm 2 mps 696 mmHg 58%
    22:00 +29°C° 1.1 mm 2 mps 696 mmHg 60%
    23:00 +28°C° 0.6 mm 2 mps 696 mmHg 61%

    27 February, Monday

    Time Temperature Precipitation Wind Pressure Humidity
    00:00 +27°C° 0.6 mm 3 mps 696 mmHg 62%
    01:00 +27°C° 0.6 mm 3 mps 695 mmHg 63%
    02:00 +27°C° 0.1 mm 2 mps 695 mmHg 62%
    03:00 +26°C° 0.1 mm 2 mps 695 mmHg 62%
    04:00 +26°C° 0.1 mm 2 mps 695 mmHg 61%
    05:00 +27°C° 0.1 mm 2 mps 696 mmHg 59%
    06:00 +27°C° 0.1 mm 2 mps 697 mmHg 57%
    07:00 +28°C° 0.1 mm 3 mps 697 mmHg 54%
    08:00 +29°C° 0.1 mm 3 mps 697 mmHg 50%
    09:00 +31°C° 0.1 mm 3 mps 698 mmHg 46%
    10:00 +33°C° 0.1 mm 3 mps 698 mmHg 42%
    11:00 +34°C° 0.3 mm 3 mps 697 mmHg 41%
    12:00 +35°C° 0.3 mm 4 mps 697 mmHg 40%
    13:00 +35°C° 0.3 mm 4 mps 697 mmHg 39%
    14:00 +35°C° 1.6 mm 4 mps 696 mmHg 42%
    15:00 +35°C° 1.6 mm 4 mps 696 mmHg 44%
    16:00 +34°C° 1.6 mm 4 mps 696 mmHg 46%
    17:00 +33°C° 2.4 mm 4 mps 697 mmHg 51%
    18:00 +31°C° 2.4 mm 3 mps 697 mmHg 56%
    19:00 +30°C° 2.4 mm 2 mps 697 mmHg 61%
    20:00 +29°C° 2.1 mm 2 mps 697 mmHg 64%
    21:00 +28°C° 2.1 mm 2 mps 698 mmHg 66%
    22:00 +28°C° 2.1 mm 2 mps 698 mmHg 69%
    23:00 +27°C° 1.5 mm 2 mps 698 mmHg 70%

    28 February, Tuesday

    Time Temperature Precipitation Wind Pressure Humidity
    00:00 +27°C° 1.5 mm 2 mps 698 mmHg 71%
    01:00 +26°C° 1.5 mm 2 mps 697 mmHg 72%
    02:00 +26°C° 0.7 mm 2 mps 697 mmHg 72%
    03:00 +26°C° 0.7 mm 2 mps 697 mmHg 72%
    04:00 +25°C° 0.7 mm 2 mps 697 mmHg 73%
    05:00 +26°C° 0 mm 2 mps 697 mmHg 68%
    06:00 +26°C° 0 mm 1 mps 698 mmHg 64%
    07:00 +27°C° 0 mm 1 mps 698 mmHg 60%
    08:00 +28°C° 0 mm 1 mps 698 mmHg 55%
    09:00 +30°C° 0 mm 2 mps 697 mmHg 50%
    10:00 +31°C° 0 mm 2 mps 697 mmHg 46%
    11:00 +32°C° 0 mm 2 mps 697 mmHg 43%
    12:00 +34°C° 0 mm 2 mps 696 mmHg 40%
    13:00 +35°C° 0 mm 3 mps 696 mmHg 38%
    14:00 +35°C° 0.1 mm 3 mps 695 mmHg 38%
    15:00 +35°C° 0.1 mm 3 mps 695 mmHg 38%
    16:00 +35°C° 0.1 mm 3 mps 694 mmHg 39%
    17:00 +34°C° 0.1 mm 2 mps 694 mmHg 43%
    18:00 +32°C° 0.1 mm 2 mps 695 mmHg 48%
    19:00 +30°C° 0.1 mm 2 mps 695 mmHg 52%
    20:00 +30°C° 0 mm 2 mps 695 mmHg 53%
    21:00 +30°C° 0 mm 2 mps 695 mmHg 54%
    22:00 +29°C° 0 mm 2 mps 695 mmHg 55%
    23:00 +29°C° 0 mm 1 mps 694 mmHg 55%
    Show more